ISS (ZARYA) (25544 NORAD) Tracking and Keplerian Element Data

This shows tracking and keplerian element data for the satellite.

Feedback or suggestion? Click here.




ElementValue
Catalog25544
NameISS (ZARYA)
Epoch Orbit36101
Epoch Day270.26577942
Epoch Year2022
RAAN190.8477
Inclination51.6442
Eccentricity0.00024
Argument of Perigee299.6081
Mean Anonmoly196.6119
Mean Motion15.50315881
Decay Rate0.00010327
L11 25544U 98067A 22270.26577942 .00010327 00000+0 18661-3 0 9992
L22 25544 51.6442 190.8477 0002400 299.6081 196.6119 15.50315881361012

Live tracking and technical data element details for ISS (ZARYA) (NORAD 25544). ISS (ZARYA) can be tracked NOW for your location showing map with azimuth and elevation plus other details from your city location.

Track the satellite on the map from your city or location and see movement details for azimuth, elevation, latitude, longitude, range, height, and movement on the map or in text.







IsCatalogInMostPopularTable: catalog: 25544, numindb: 116414
Update: records affected: 3



GetName: 25544 ISS (ZARYA)

Hit Count: updated at: Wed, 05 Oct 2022 08:47:07 GMT